Location: CAO
(44.5093°N, 80.3921°W)
Time: 20:43:52
(UTC-05:00)

ARIANE 6 FM1 Upper Stage - Pass Details

Date: 25 January 2026
Orbit: 522 x 609 km, 62.0° (Epoch: 7 February)

Event Time Altitude Azimuth Distance (km) Brightness Sun altitude
Rises 18:56:17 0° 235° (SW) 2,709 7.4 -16.9°
Reaches altitude 10° 18:58:35 10° 242° (WSW) 1,805 6.4 -17.3°
Maximum altitude 19:02:28 44° 315° (NW) 747 3.5 -18.0°
Enters shadow 19:04:47 21° 18° (NNE) 1,229 4.1 -18.4°
